Regional Weather Roundup
Issued by NWS Sioux Falls, SD

Home | Current Version | Previous Version | Text Only | Print | Product List | Glossary On
Versions: 1 2 3 4 5 6 7 8 9 10 11 12 13 14 15 16 17 18 19 20 21 22 23 24 25 26 27 28 29 30 31 32 33 34 35 36 37 38 39 40 41 42 43 44 45 46 47 48 49 50
000
ASUS43 KFSD 191610
RWRFSD

WEATHER ROUNDUP FOR SE SOUTH DAKOTA/SW MINNESOTA/NW IOWA
NATIONAL WEATHER SERVICE SIOUX FALLS SD
1100 AM CDT THU OCT 19 2017

NOTE: "FAIR" INDICATES FEW OR NO CLOUDS BELOW 12,000 FEET WITH NO
SIGNIFICANT WEATHER AND OR OBSTRUCTIONS TO VISIBILITY.


SDZ038>040-050-052>070-191700-
SOUTHEAST SOUTH DAKOTA

CITY           SKY/WX    TMP DP  RH WIND       PRES   REMARKS
BROOKINGS      SUNNY     58  37  45 S15       30.01F
CHAMBERLAIN    SUNNY     66  41  40 S16G24    29.93F
HURON          SUNNY     57  38  48 S12       29.94F
MADISON        FAIR      57  36  44 S16       30.02S
MITCHELL       SUNNY     60  40  47 S15       29.98F
SIOUX FALLS    MOSUNNY   61  39  44 S15       30.04S
WINNER         FAIR      62  40  44 S23G32    29.91F
YANKTON        SUNNY     57  45  64 E7        30.03F
$$

MNZ071-072-080-081-089-090-097-098-191700-
SOUTHWEST MINNESOTA

CITY           SKY/WX    TMP DP  RH WIND       PRES   REMARKS
FAIRMONT       SUNNY     58  33  39 S14       30.09F
JACKSON        SUNNY     59  28  31 S13G21    30.09S
LUVERNE        SUNNY     59  32  36 S12       30.06F
MARSHALL       SUNNY     63  34  33 S18G24    30.00F
MONTEVIDEO     SUNNY     63  34  34 SW14G22   29.99S
PIPESTONE      SUNNY     61  32  33 S16       30.03S
REDWOOD FALLS  SUNNY     62  33  33 S17       30.03S
TRACY          SUNNY     61  34  36 S14G26    30.02F
WORTHINGTON    SUNNY     60  30  32 S17G25    30.07S
$$

IAZ001>003-012>014-020>022-031-032-NEZ013-014-SDZ071-191700-
NORTHWEST IOWA

CITY           SKY/WX    TMP DP  RH WIND       PRES   REMARKS
CHEROKEE       SUNNY     62  34  35 S15G21    30.08F
DENISON        SUNNY     63  37  39 SE10      30.11S
ESTHERVILLE    SUNNY     56  32  40 S17       30.09S
LE MARS        SUNNY     63  37  39 S14       30.06S
ORANGE CITY    SUNNY     63  37  39 S14       30.07S
SHELDON        SUNNY     61  32  33 SE15G23   30.06S
SIOUX CITY     SUNNY     61  43  51 S9        30.07S
SPENCER        SUNNY     60  35  39 SE13      30.09F
STORM LAKE     SUNNY     63  30  29 SE12G22   30.09S
$$

ABBREVIATIONS USED IN REMARKS
   TC - TEMPERATURE IN CELSIUS
  WCI - WIND CHILL INDEX
   HX - HEAT INDEX
  VSB - VISIBILITY





USA.gov is the U.S. government's official web portal to all federal, state and local government web resources and services.